Location: McMath-Hulbert Observatory
(42.6964°N, 83.3187°W)
Time: 10:09:54
(UTC-04:00)

Daily predictions for brighter satellites

Satellite Brightness Start Highest point End
(mag) Time Altitude Azimuth Time Altitude Azimuth Time Altitude Azimuth
SL-27 R/B 2.7 21:27:38 10° N 21:31:15 57° ENE 21:34:48 10° SSE
SL-8 R/B 3.7 21:27:05 10° WSW 21:31:54 88° SSE 21:36:45 10° ENE
ISS -1.6 21:30:35 10° S 21:32:35 15° SE 21:34:34 10° E
SPOT 5 4.0 21:28:07 10° SE 21:32:50 34° ENE 21:37:37 10° N
NOSS 2-2 (C) 3.5 21:29:50 10° SSW 21:33:56 82° ESE 21:38:43 10° NE
Meteor 2-6 Rocket 4.4 21:32:34 10° N 21:38:31 63° ENE 21:44:17 10° SSE
H-2A R/B 2.3 21:39:09 10° SSE 21:43:19 51° ENE 21:47:26 10° N
COSMOS 2487 4.1 21:41:20 10° N 21:44:15 22° ENE 21:47:00 11° ESE
ATLAS 5 CENTAUR R/B 2.8 21:39:40 10° NW 21:45:38 65° WSW 21:52:00 10° SSE
OPS 6432 4.4 21:42:36 10° SW 21:46:02 80° NW 21:49:08 10° NE
ARGOS 4.5 21:42:43 10° ESE 21:46:53 24° ENE 21:51:06 10° NNE
Envisat 3.1 21:43:58 10° SSE 21:48:58 63° ENE 21:54:01 10° N
USA 186 4.0 21:47:22 10° SSW 21:50:02 26° W 21:52:49 10° NW
Cosmos 1624 Rocket 4.3 21:46:41 10° SSW 21:51:56 73° WNW 21:57:16 10° NNE
ERBS 3.8 21:49:04 10° WNW 21:52:10 31° SW 21:55:16 10° SSE
COSMOS 2406 3.6 21:46:35 10° NNW 21:52:16 64° WSW 21:57:53 10° S
NOSS 2-2 (E) 4.2 21:48:16 10° SW 21:52:25 63° NW 21:57:24 10° NNE
BREEZE-M DEB (TANK) 4.3 21:35:49 10° WNW 21:54:01 71° NNE 21:58:21 10° ESE
Cosmos 2074 Rocket 4.3 21:48:43 10° SSW 21:55:00 75° W 22:01:17 10° N
GPS 2-05 Rocket1 4.5 21:56:22 10° SSW 21:59:03 19° SSE 22:00:35 15° SE
Cosmos 1833 Rocket 4.4 22:00:02 10° N 22:04:04 20° NE 22:08:06 10° E
Cosmos 2278 Rocket 2.5 21:59:25 10° S 22:04:45 44° ESE 22:10:07 10° NE
Cosmos 407 Rocket 3.6 22:01:10 10° NNW 22:06:27 82° WSW 22:11:46 10° SSE
H-2A R/B 3.8 22:03:38 11° ESE 22:07:07 20° ENE 22:10:49 10° NNE
Cosmos 1825 2.4 22:04:47 10° SSE 22:08:27 48° E 22:12:09 10° NNE
Okean 2 Rocket 3.8 22:05:29 13° SSE 22:08:54 34° E 22:12:53 10° NNE
Cosmos 1844 3.7 22:03:14 10° SSW 22:08:57 73° ESE 22:14:46 10° NNE
YAOGAN 6 3.1 22:06:45 17° SE 22:09:04 39° ENE 22:12:23 10° N
ERS-1 Rocket 3.6 22:04:26 10° S 22:09:22 57° W 22:14:21 10° NNW
Nadezhda 3 Rocket 4.0 22:03:45 10° N 22:10:07 74° E 22:16:29 10° SSE
Cosmos 1408 2.8 22:06:51 10° S 22:10:23 49° E 22:13:56 10° NNE
Cosmos 1674 Rocket 4.1 22:05:59 10° NNW 22:10:24 61° W 22:14:45 10° S
Cosmos 1844 Rocket 2.8 22:04:45 10° SSW 22:10:25 83° WNW 22:16:06 10° NNE
BREEZE-M DEB (TANK) 3.6 22:09:00 10° W 22:11:34 53° NNW 22:17:36 10° ENE
EO 1 Delta rocket 4.3 22:08:17 10° N 22:14:42 83° E 22:19:48 10° S
Cosmos 1140 Rocket 3.9 22:10:11 10° N 22:15:09 47° ENE 22:18:41 18° SE
Cosmos 1242 Rocket 3.5 22:12:06 10° N 22:15:25 32° ENE 22:17:13 21° ESE
Cosmos 1452 Rocket 3.4 22:10:43 10° S 22:15:57 73° ESE 22:21:14 10° NNE
Sich 1 Rocket 3.9 22:12:41 10° SSW 22:17:15 73° W 22:21:51 10° N
MetOp-A 4.1 22:13:35 13° SSE 22:18:19 72° ENE 22:23:39 10° N
Okean 3 3.5 22:16:22 10° N 22:20:39 65° E 22:23:41 18° SSE
SPOT 1/Viking Rocket 3.9 22:18:19 18° SE 22:22:05 52° ENE 22:27:09 10° N
Cosmos 2082 Rocket 3.3 22:18:26 10° N 22:23:32 32° NE 22:27:07 17° ESE
USA 234 4.1 22:18:44 10° ENE 22:23:58 25° SE 22:29:11 10° S
Cosmos 1862 3.3 22:20:12 10° S 22:24:16 90° WNW 22:28:23 10° N
NOSS 5 (C) 4.1 22:21:53 10° SW 22:25:18 87° SE 22:28:24 10° NE
Cosmos 1782 Rocket 3.6 22:21:11 11° S 22:25:24 63° E 22:29:51 10° NNE
CZ-4B R/B 3.7 22:23:54 10° NNE 22:28:41 46° E 22:32:07 17° SSE
Cosmos 2341 Rocket 4.0 22:26:59 10° S 22:33:18 85° E 22:39:36 10° N
DNEPR-1 R/B 4.1 22:29:49 10° NNW 22:35:18 61° NE 22:37:55 25° SE
Cosmos 2297 4.1 22:34:15 15° S 22:38:38 42° ESE 22:44:00 10° NE
Cosmos 1975 Rocket 3.0 22:35:48 10° N 22:40:09 89° E 22:42:49 23° S
Cosmos 1184 Rocket 2.9 22:39:00 16° SSW 22:41:30 76° W 22:44:52 10° N
CZ-4 SHROUD 3.7 22:41:28 25° S 22:43:02 54° W 22:46:05 10° NNW
Meteor 1-27 Rocket 4.4 22:38:35 10° NNW 22:43:58 52° W 22:49:16 10° SSW
Timation 2 Rocket 3.8 22:40:02 10° NNW 22:46:03 76° ENE 22:49:32 26° SE
Cosmos 1606 4.2 22:43:34 10° NNW 22:47:09 34° W 22:50:39 10° SSW
CZ-4C R/B 4.1 22:46:35 30° ESE 22:47:45 38° ENE 22:51:33 10° N
Cosmos 1850 Rocket 4.1 22:42:50 10° NNW 22:48:10 69° ENE 22:50:56 29° SE
NOAA 11 4.2 22:45:02 24° SSE 22:48:28 78° ENE 22:53:59 10° N
SL-8 Rocket 4.0 22:45:50 16° S 22:50:52 70° E 22:57:04 10° NNE
PSLV R/B 4.4 22:50:18 22° SSW 22:51:41 35° W 22:54:26 10° NNW
Cosmos 1536 Rocket 4.3 22:48:42 10° N 22:52:55 39° ENE 22:54:12 31° ESE
Landsat 7 4.1 22:52:47 31° SE 22:54:45 53° ENE 22:59:24 10° N
Cosmos 2084 4.0 22:55:32 10° SW 22:59:18 52° NW 23:03:04 10° NNE
USA 245 3.5 23:00:54 34° SSW 23:02:02 53° W 23:05:53 10° NNW
BREEZE-M TANK 3.8 22:52:06 10° W 23:06:04 70° N 23:09:01 17° E
Cosmos 1238 Rocket 4.3 23:03:56 10° NW 23:06:42 26° W 23:08:57 15° SW
BREEZE-M DEB (TANK) 3.8 23:06:04 10° NW 23:07:53 22° N 23:10:44 10° ENE
Cosmos 1741 Rocket 4.0 23:02:40 10° NNW 23:07:56 83° WSW 23:10:12 35° SSE
ISS -3.0 23:05:26 10° WSW 23:08:40 67° NNW 23:11:55 10° NE
USA 229 DEB 3.9 23:01:55 10° NNW 23:09:00 66° NE 23:12:49 29° SE
USA 229 3.9 23:02:01 10° NNW 23:09:06 65° NE 23:12:55 29° ESE
Terra 2.1 23:09:02 38° SE 23:10:30 54° ENE 23:15:09 10° N
SPOT 5 4.5 23:06:18 11° SSW 23:10:48 33° W 23:15:38 10° NNW
Cosmos 2151 Rocket 3.5 23:13:00 40° S 23:14:35 78° E 23:19:08 10° N
Spot 4 4.3 23:16:28 38° ESE 23:17:45 48° ENE 23:22:25 10° N
COSMOS 2487 4.4 23:16:52 10° NW 23:19:47 23° W 23:21:04 19° SW
Cosmos 1331 Rocket 4.5 23:20:06 37° ESE 23:20:25 38° ESE 23:25:10 10° NE
Cosmos 864 Rocket 4.4 23:18:36 29° S 23:21:58 82° E 23:28:10 10° N
Meteor 1-20 Rocket 4.3 23:22:26 41° SSE 23:24:09 58° E 23:29:35 10° NNE
SL-08 RB Rocket 4.3 23:23:16 32° SSW 23:25:08 52° W 23:29:41 10° NNW
Cosmos 1110 Rocket 4.2 23:25:13 45° SE 23:26:02 49° ESE 23:31:04 10° NNE
Okean 1 3.7 23:22:33 10° N 23:26:30 47° ENE 23:26:36 47° E
ARGOS 3.8 23:23:56 25° SSW 23:26:49 48° W 23:32:00 10° NNW
Lacrosse 5 4.2 23:30:40 11° ENE 23:30:40 11° ENE 23:30:50 10° ENE
APEX 4.1 23:24:54 17° SW 23:27:48 58° WNW 23:32:53 10° NNE
Cosmos 2366 rocket 4.0 23:26:54 25° SSW 23:30:44 81° W 23:37:07 10° N
ASTEX 1 3.6 23:26:35 10° NNE 23:31:24 49° E 23:31:59 46° ESE
Meteor 1-25 Rocket 4.2 23:31:42 37° S 23:34:12 84° E 23:40:03 10° NNE
Cosmos 1300 Rocket 3.6 23:39:23 59° E 23:39:26 59° E 23:43:50 10° NNE
IGS 5A 3.3 23:39:52 71° SSW 23:40:16 82° WSW 23:44:28 10° NNW
Okean 1 Rocket 3.3 23:40:29 52° E 23:40:29 52° E 23:44:46 10° NNE
Okean 1-7 Rocket 3.7 23:40:50 10° N 23:45:17 56° E 23:45:24 56° E
H-2A R/B 2.4 23:44:16 40° SSW 23:46:03 62° W 23:51:20 10° NNW
Cosmos 1833 Rocket 2.7 23:42:59 10° NNW 23:48:36 73° WSW 23:49:59 51° S
Cosmos 2278 Rocket 4.0 23:44:03 10° WSW 23:48:59 30° NW 23:53:57 10° N
Cosmos 1486 Rocket 4.3 23:44:22 10° NNW 23:49:37 54° ENE 23:50:34 48° ESE
Spot 2 4.0 23:45:22 10° NNE 23:49:34 70° E 23:49:34 70° E
